Location: Fontevrault
(47.1823°N, 0.0493°E)
Time: 16:50:13
(UTC+00:00)

Cosmos 1459 Rocket - Pass Details

Date: 26 October 2021
Orbit: 936 x 1000 km, 83.0° (Epoch: 27 November)

Event Time Altitude Azimuth Distance (km) Brightness Sun altitude
Rises 17:19:56 0° 123° (ESE) 3,650 6.6 -5.3°
Reaches altitude 10° 17:24:49 10° 88° (E) 2,693 5.7 -6.1°
Maximum altitude 17:26:13 11° 75° (ENE) 2,630 5.6 -6.3°
Drops below altitude 10° 17:27:37 10° 62° (ENE) 2,687 5.7 -6.6°
Sets 17:32:27 0° 28° (NNE) 3,625 6.6 -7.4°
